Year,Month,Day,Hour,Minute,Value (Times are PST for temperature in C)
2016,01,28,08,49,10.60
2016,01,28,08,50,10.60
2016,01,28,08,51,10.60
2016,01,28,08,52,10.60
2016,01,28,08,53,10.60
2016,01,28,08,54,10.60
2016,01,28,08,55,10.60
2016,01,28,08,56,10.60
2016,01,28,08,57,10.60
2016,01,28,08,58,10.60
2016,01,28,08,59,10.60
2016,01,28,09,00,10.60
2016,01,28,09,01,10.50
2016,01,28,09,02,10.50
2016,01,28,09,03,10.50
2016,01,28,09,04,10.50
2016,01,28,09,05,10.40
2016,01,28,09,06,10.40
2016,01,28,09,07,10.40
2016,01,28,09,08,10.50
2016,01,28,09,09,10.50
2016,01,28,09,10,10.40
2016,01,28,09,11,10.40
2016,01,28,09,12,10.40
2016,01,28,09,13,10.40
2016,01,28,09,14,10.40
2016,01,28,09,15,10.40
2016,01,28,09,16,10.50
2016,01,28,09,17,10.40
2016,01,28,09,18,10.40
2016,01,28,09,19,10.50
2016,01,28,09,20,10.50
2016,01,28,09,21,10.50
2016,01,28,09,22,10.50
2016,01,28,09,23,10.50
2016,01,28,09,24,10.50
2016,01,28,09,25,10.60
2016,01,28,09,26,10.60
2016,01,28,09,27,10.70
2016,01,28,09,28,10.80
2016,01,28,09,29,10.80
2016,01,28,09,30,10.90
2016,01,28,09,31,10.90
2016,01,28,09,32,10.90
2016,01,28,09,33,10.90
2016,01,28,09,34,10.90
2016,01,28,09,35,10.90
2016,01,28,09,36,10.90
2016,01,28,09,37,11.00
2016,01,28,09,38,10.90
2016,01,28,09,39,10.90
2016,01,28,09,40,10.90
2016,01,28,09,41,10.90
2016,01,28,09,42,10.90
2016,01,28,09,43,10.90
2016,01,28,09,44,10.90
2016,01,28,09,45,10.90
2016,01,28,09,46,11.00
2016,01,28,09,47,11.00
2016,01,28,09,48,11.00
2016,01,28,09,49,11.10
2016,01,28,09,50,11.10
2016,01,28,09,51,11.10
2016,01,28,09,52,11.10
2016,01,28,09,53,11.10
2016,01,28,09,54,11.00
2016,01,28,09,55,11.00
2016,01,28,09,56,11.00
2016,01,28,09,57,11.00
2016,01,28,09,58,11.00
2016,01,28,09,59,11.00
2016,01,28,10,00,11.00
2016,01,28,10,01,11.00
2016,01,28,10,02,11.10
2016,01,28,10,03,11.10
2016,01,28,10,04,11.10
2016,01,28,10,05,11.10
2016,01,28,10,06,11.10
2016,01,28,10,07,11.10
2016,01,28,10,08,11.10
2016,01,28,10,09,11.10
2016,01,28,10,10,11.10
2016,01,28,10,11,11.10
2016,01,28,10,12,11.10
2016,01,28,10,13,11.10
2016,01,28,10,14,11.10
2016,01,28,10,15,11.10
2016,01,28,10,16,11.10
2016,01,28,10,17,11.10
2016,01,28,10,18,11.10
2016,01,28,10,19,11.10
2016,01,28,10,20,11.10
2016,01,28,10,21,11.00
2016,01,28,10,22,11.00
2016,01,28,10,23,11.00
2016,01,28,10,24,11.00
2016,01,28,10,25,11.00
2016,01,28,10,26,11.00
2016,01,28,10,27,11.00
2016,01,28,10,28,11.00
2016,01,28,10,29,11.00
2016,01,28,10,30,11.00
2016,01,28,10,31,11.00
2016,01,28,10,32,11.00
2016,01,28,10,33,11.00
2016,01,28,10,34,11.00
2016,01,28,10,35,11.00
2016,01,28,10,36,11.00
2016,01,28,10,37,11.00
2016,01,28,10,38,11.00
2016,01,28,10,39,11.00
2016,01,28,10,40,11.00
2016,01,28,10,41,11.00
2016,01,28,10,42,11.10
2016,01,28,10,43,11.20
2016,01,28,10,44,11.20
2016,01,28,10,45,11.30
2016,01,28,10,46,11.40
2016,01,28,10,47,11.50
2016,01,28,10,48,11.60
2016,01,28,10,49,11.70
2016,01,28,10,50,11.80
2016,01,28,10,51,11.80
2016,01,28,10,52,11.80
2016,01,28,10,53,11.90
2016,01,28,10,54,11.90
2016,01,28,10,55,11.90
2016,01,28,10,56,11.90
2016,01,28,10,57,11.90
2016,01,28,10,58,11.90
2016,01,28,10,59,11.90
2016,01,28,11,00,11.90
2016,01,28,11,01,11.90
2016,01,28,11,02,11.90
2016,01,28,11,03,11.90
2016,01,28,11,04,11.80
2016,01,28,11,05,11.80
2016,01,28,11,06,11.80
2016,01,28,11,07,11.80
2016,01,28,11,08,11.70
2016,01,28,11,09,11.70
2016,01,28,11,10,11.60
2016,01,28,11,11,11.60
2016,01,28,11,12,11.60
2016,01,28,11,13,11.60
2016,01,28,11,14,11.60
2016,01,28,11,15,11.60
2016,01,28,11,16,11.60
2016,01,28,11,17,11.50
2016,01,28,11,18,11.50
2016,01,28,11,19,11.50
2016,01,28,11,20,11.50
2016,01,28,11,21,11.50
2016,01,28,11,22,11.40
2016,01,28,11,23,11.40
2016,01,28,11,24,11.30
2016,01,28,11,25,11.30
2016,01,28,11,26,11.20
2016,01,28,11,27,11.20
2016,01,28,11,28,11.10
2016,01,28,11,29,11.10
2016,01,28,11,30,11.10
2016,01,28,11,31,11.10
2016,01,28,11,32,11.10
2016,01,28,11,33,11.00
2016,01,28,11,34,11.00
2016,01,28,11,35,11.00
2016,01,28,11,36,11.00
2016,01,28,11,37,11.00
2016,01,28,11,38,11.00
2016,01,28,11,39,11.00
2016,01,28,11,40,11.00
2016,01,28,11,41,11.00
2016,01,28,11,42,11.00
2016,01,28,11,43,11.00
2016,01,28,11,44,11.10
2016,01,28,11,45,11.10
2016,01,28,11,46,11.10
2016,01,28,11,47,11.10
2016,01,28,11,48,11.00
2016,01,28,11,49,10.90
2016,01,28,11,50,10.90
2016,01,28,11,51,10.90
2016,01,28,11,52,10.80
2016,01,28,11,53,10.80
2016,01,28,11,54,10.80
2016,01,28,11,55,10.70
2016,01,28,11,56,10.70
2016,01,28,11,57,10.70
2016,01,28,11,58,10.70
2016,01,28,11,59,10.70
2016,01,28,12,00,10.70
2016,01,28,12,01,10.60
2016,01,28,12,02,10.60
2016,01,28,12,03,10.60
2016,01,28,12,04,10.60
2016,01,28,12,05,10.50
2016,01,28,12,06,10.40
2016,01,28,12,07,10.40
2016,01,28,12,08,10.30
2016,01,28,12,09,10.20
2016,01,28,12,10,10.10
2016,01,28,12,11,9.90
2016,01,28,12,12,9.70
2016,01,28,12,13,9.60
2016,01,28,12,14,9.40
2016,01,28,12,15,9.30
2016,01,28,12,16,9.20
2016,01,28,12,17,9.10
2016,01,28,12,18,9.00
2016,01,28,12,19,8.90
2016,01,28,12,20,8.90
2016,01,28,12,21,8.90
2016,01,28,12,22,8.90
2016,01,28,12,23,8.90
2016,01,28,12,24,9.00
2016,01,28,12,25,9.00
2016,01,28,12,26,9.10
2016,01,28,12,27,9.20
2016,01,28,12,28,9.30
2016,01,28,12,29,9.30
2016,01,28,12,30,9.40
2016,01,28,12,31,9.50
2016,01,28,12,32,9.60
2016,01,28,12,33,9.70
2016,01,28,12,34,9.80
2016,01,28,12,35,9.80
2016,01,28,12,36,9.90
2016,01,28,12,37,10.00
2016,01,28,12,38,10.10
2016,01,28,12,39,10.20
2016,01,28,12,40,10.30
2016,01,28,12,41,10.40
2016,01,28,12,42,10.40
2016,01,28,12,43,10.50
2016,01,28,12,44,10.60
2016,01,28,12,45,10.60
2016,01,28,12,46,10.70
2016,01,28,12,47,10.70
2016,01,28,12,48,10.70
2016,01,28,12,49,10.70
2016,01,28,12,50,10.70
2016,01,28,12,51,10.70
2016,01,28,12,52,10.70
2016,01,28,12,53,10.70
2016,01,28,12,54,10.70
2016,01,28,12,55,10.70
2016,01,28,12,56,10.70
2016,01,28,12,57,10.70
2016,01,28,12,58,10.80
2016,01,28,12,59,10.80
2016,01,28,13,00,10.90
2016,01,28,13,01,10.90
2016,01,28,13,02,10.90
2016,01,28,13,03,11.00
2016,01,28,13,04,11.00
2016,01,28,13,05,11.10
2016,01,28,13,06,11.10
2016,01,28,13,07,11.10
2016,01,28,13,08,11.10
2016,01,28,13,09,11.10
2016,01,28,13,10,11.10
2016,01,28,13,11,11.20
2016,01,28,13,12,11.30
2016,01,28,13,13,11.30
2016,01,28,13,14,11.40
2016,01,28,13,15,11.40
2016,01,28,13,16,11.40
2016,01,28,13,17,11.40
2016,01,28,13,18,11.40
2016,01,28,13,19,11.30
2016,01,28,13,20,11.30
2016,01,28,13,21,11.40
2016,01,28,13,22,11.40
2016,01,28,13,23,11.40
2016,01,28,13,24,11.40
2016,01,28,13,25,11.50
2016,01,28,13,26,11.40
2016,01,28,13,27,11.40
2016,01,28,13,28,11.40
2016,01,28,13,29,11.50
2016,01,28,13,30,11.50
2016,01,28,13,31,11.50
2016,01,28,13,32,11.40
2016,01,28,13,33,11.40
2016,01,28,13,34,11.30
2016,01,28,13,35,11.30
2016,01,28,13,36,11.20
2016,01,28,13,37,11.10
2016,01,28,13,38,11.00
2016,01,28,13,39,10.90
2016,01,28,13,40,10.90
2016,01,28,13,41,10.80
2016,01,28,13,42,10.70
2016,01,28,13,43,10.70
2016,01,28,13,44,10.60
2016,01,28,13,45,10.60
2016,01,28,13,46,10.60
2016,01,28,13,47,10.60
2016,01,28,13,48,10.50
2016,01,28,13,49,10.50
2016,01,28,13,50,10.40
2016,01,28,13,51,10.40
2016,01,28,13,52,10.30
2016,01,28,13,53,10.10
2016,01,28,13,54,9.90
2016,01,28,13,55,9.60
2016,01,28,13,56,9.30
2016,01,28,13,57,9.00
2016,01,28,13,58,8.80
2016,01,28,13,59,8.60
2016,01,28,14,00,8.40
2016,01,28,14,01,8.30
2016,01,28,14,02,8.30
2016,01,28,14,03,8.30
2016,01,28,14,04,8.20
2016,01,28,14,05,8.20
2016,01,28,14,06,8.30
2016,01,28,14,07,8.30
2016,01,28,14,08,8.30
2016,01,28,14,09,8.30
2016,01,28,14,10,8.30
2016,01,28,14,11,8.40
2016,01,28,14,12,8.50
2016,01,28,14,13,8.60
2016,01,28,14,14,8.70
2016,01,28,14,15,8.80
2016,01,28,14,16,8.80
2016,01,28,14,17,8.90
2016,01,28,14,18,8.90
2016,01,28,14,19,9.00
2016,01,28,14,20,9.00
2016,01,28,14,21,9.10
2016,01,28,14,22,9.10
2016,01,28,14,23,9.10
2016,01,28,14,24,9.10
2016,01,28,14,25,9.20
2016,01,28,14,26,9.20
2016,01,28,14,27,9.20
2016,01,28,14,28,9.20
2016,01,28,14,29,9.20
2016,01,28,14,30,9.20
2016,01,28,14,31,9.20
2016,01,28,14,32,9.30
2016,01,28,14,33,9.40
2016,01,28,14,34,9.40
2016,01,28,14,35,9.50
2016,01,28,14,36,9.60
2016,01,28,14,37,9.60
2016,01,28,14,38,9.70
2016,01,28,14,39,9.70
2016,01,28,14,40,9.70
2016,01,28,14,41,9.70
2016,01,28,14,42,9.70
2016,01,28,14,43,9.80
2016,01,28,14,44,9.80
2016,01,28,14,45,9.80
2016,01,28,14,46,9.90
2016,01,28,14,47,9.90
2016,01,28,14,48,9.90
2016,01,28,14,49,9.90
2016,01,28,14,50,10.00
2016,01,28,14,51,10.00
2016,01,28,14,52,10.10
2016,01,28,14,53,10.10
2016,01,28,14,54,10.10
2016,01,28,14,55,10.10
2016,01,28,14,56,10.10
2016,01,28,14,57,10.10
2016,01,28,14,58,10.10
2016,01,28,14,59,10.10
2016,01,28,15,00,10.20
2016,01,28,15,01,10.20
2016,01,28,15,02,10.20
2016,01,28,15,03,10.20
2016,01,28,15,04,10.20
2016,01,28,15,05,10.20
2016,01,28,15,06,10.20
2016,01,28,15,07,10.20
2016,01,28,15,08,10.20
2016,01,28,15,09,10.30
2016,01,28,15,10,10.30
2016,01,28,15,11,10.30
2016,01,28,15,12,10.30
2016,01,28,15,13,10.30
2016,01,28,15,14,10.30
2016,01,28,15,15,10.30
2016,01,28,15,16,10.30
2016,01,28,15,17,10.30
2016,01,28,15,18,10.30
2016,01,28,15,19,10.30
2016,01,28,15,20,10.30
2016,01,28,15,21,10.30
2016,01,28,15,22,10.30
2016,01,28,15,23,10.30
2016,01,28,15,24,10.30
2016,01,28,15,25,10.30
2016,01,28,15,26,10.30
2016,01,28,15,27,10.30
2016,01,28,15,28,10.30
2016,01,28,15,29,10.40
2016,01,28,15,30,10.40
2016,01,28,15,31,10.40
2016,01,28,15,32,10.40
2016,01,28,15,33,10.40
2016,01,28,15,34,10.40
2016,01,28,15,35,10.40
2016,01,28,15,36,10.40
2016,01,28,15,37,10.40
2016,01,28,15,38,10.40
2016,01,28,15,39,10.30
2016,01,28,15,40,10.30
2016,01,28,15,41,10.30
2016,01,28,15,42,10.30
2016,01,28,15,43,10.30
2016,01,28,15,44,10.30
2016,01,28,15,45,10.30
2016,01,28,15,46,10.30
2016,01,28,15,47,10.30
2016,01,28,15,48,10.30
2016,01,28,15,49,10.30
2016,01,28,15,50,10.30
2016,01,28,15,51,10.20
2016,01,28,15,52,10.20
2016,01,28,15,53,10.20
2016,01,28,15,54,10.20
2016,01,28,15,55,10.20
2016,01,28,15,56,10.20
2016,01,28,15,57,10.10
2016,01,28,15,58,10.10
2016,01,28,15,59,10.10
2016,01,28,16,00,10.10
2016,01,28,16,01,10.00
2016,01,28,16,02,10.00
2016,01,28,16,03,10.00
2016,01,28,16,04,10.10
2016,01,28,16,05,10.10
2016,01,28,16,06,10.10
2016,01,28,16,07,10.10
2016,01,28,16,08,10.10
2016,01,28,16,09,10.10
2016,01,28,16,10,10.00
2016,01,28,16,11,10.00
2016,01,28,16,12,10.00
2016,01,28,16,13,10.00
2016,01,28,16,14,9.90
2016,01,28,16,15,9.90
2016,01,28,16,16,9.90
2016,01,28,16,17,9.80
2016,01,28,16,18,9.80
2016,01,28,16,19,9.70
2016,01,28,16,20,9.70
2016,01,28,16,21,9.60
2016,01,28,16,22,9.60
2016,01,28,16,23,9.50
2016,01,28,16,24,9.50
2016,01,28,16,25,9.50
2016,01,28,16,26,9.40
2016,01,28,16,27,9.40
2016,01,28,16,28,9.40
2016,01,28,16,29,9.40
2016,01,28,16,30,9.50
2016,01,28,16,31,9.50
2016,01,28,16,32,9.50
2016,01,28,16,33,9.50
2016,01,28,16,34,9.50
2016,01,28,16,35,9.40
2016,01,28,16,36,9.40
2016,01,28,16,37,9.40
2016,01,28,16,38,9.40
2016,01,28,16,39,9.40
2016,01,28,16,40,9.40
2016,01,28,16,41,9.40
2016,01,28,16,42,9.30
2016,01,28,16,43,9.30
2016,01,28,16,44,9.20
2016,01,28,16,45,9.20
2016,01,28,16,46,9.20
2016,01,28,16,47,9.20
2016,01,28,16,48,9.10
2016,01,28,16,49,9.00
2016,01,28,16,50,9.00
2016,01,28,16,51,8.90
2016,01,28,16,52,8.80
2016,01,28,16,53,8.70
2016,01,28,16,54,8.70
2016,01,28,16,55,8.60
2016,01,28,16,56,8.60
2016,01,28,16,57,8.50
2016,01,28,16,58,8.40
2016,01,28,16,59,8.40
2016,01,28,17,00,8.40
2016,01,28,17,01,8.40
2016,01,28,17,02,8.40
2016,01,28,17,03,8.40
2016,01,28,17,04,8.40
2016,01,28,17,05,8.50
2016,01,28,17,06,8.50
2016,01,28,17,07,8.60
2016,01,28,17,08,8.60
2016,01,28,17,09,8.60
2016,01,28,17,10,8.60
2016,01,28,17,11,8.60
2016,01,28,17,12,8.70
2016,01,28,17,13,8.70
2016,01,28,17,14,8.80
2016,01,28,17,15,8.80
2016,01,28,17,16,8.80
2016,01,28,17,17,8.80
2016,01,28,17,18,8.70
2016,01,28,17,19,8.70
2016,01,28,17,20,8.70
2016,01,28,17,21,8.60
2016,01,28,17,22,8.60
2016,01,28,17,23,8.60
2016,01,28,17,24,8.50
2016,01,28,17,25,8.40
2016,01,28,17,26,8.40
2016,01,28,17,27,8.30
2016,01,28,17,28,8.30
2016,01,28,17,29,8.30
2016,01,28,17,30,8.30
2016,01,28,17,31,8.40
2016,01,28,17,32,8.40
2016,01,28,17,33,8.50
2016,01,28,17,34,8.50
2016,01,28,17,35,8.60
2016,01,28,17,36,8.50
2016,01,28,17,37,8.50
2016,01,28,17,38,8.50
2016,01,28,17,39,8.40
2016,01,28,17,40,8.40
2016,01,28,17,41,8.40
2016,01,28,17,42,8.40
2016,01,28,17,43,8.30
2016,01,28,17,44,8.30
2016,01,28,17,45,8.30
2016,01,28,17,46,8.20
2016,01,28,17,47,8.20
2016,01,28,17,48,8.20
2016,01,28,17,49,8.20
2016,01,28,17,50,8.20
2016,01,28,17,51,8.20
2016,01,28,17,52,8.20
2016,01,28,17,53,8.20
2016,01,28,17,54,8.20
2016,01,28,17,55,8.20
2016,01,28,17,56,8.20
2016,01,28,17,57,8.20
2016,01,28,17,58,8.20
2016,01,28,17,59,8.20
2016,01,28,18,00,8.20
2016,01,28,18,01,8.20
2016,01,28,18,02,8.20
2016,01,28,18,03,8.20
2016,01,28,18,04,8.20
2016,01,28,18,05,8.20
2016,01,28,18,06,8.20
2016,01,28,18,07,8.20
2016,01,28,18,08,8.10
2016,01,28,18,09,8.10
2016,01,28,18,10,8.00
2016,01,28,18,11,8.00
2016,01,28,18,12,7.90
2016,01,28,18,13,7.90
2016,01,28,18,14,7.80
2016,01,28,18,15,7.80
2016,01,28,18,16,7.80
2016,01,28,18,17,7.80
2016,01,28,18,18,7.80
2016,01,28,18,19,7.80
2016,01,28,18,20,7.80
2016,01,28,18,21,7.80
2016,01,28,18,22,7.80
2016,01,28,18,23,7.70
2016,01,28,18,24,7.70
2016,01,28,18,25,7.70
2016,01,28,18,26,7.70
2016,01,28,18,27,7.60
2016,01,28,18,28,7.60
2016,01,28,18,29,7.50
2016,01,28,18,30,7.50
2016,01,28,18,31,7.40
2016,01,28,18,32,7.50
2016,01,28,18,33,7.50
2016,01,28,18,34,7.50
2016,01,28,18,35,7.50
2016,01,28,18,36,7.50
2016,01,28,18,37,7.50
2016,01,28,18,38,7.50
2016,01,28,18,39,7.50
2016,01,28,18,40,7.50
2016,01,28,18,41,7.60
2016,01,28,18,42,7.60
2016,01,28,18,43,7.60
2016,01,28,18,44,7.60
2016,01,28,18,45,7.50
2016,01,28,18,46,7.40
2016,01,28,18,47,7.30
2016,01,28,18,48,7.20
2016,01,28,18,49,7.10
2016,01,28,18,50,7.00
2016,01,28,18,51,6.90
2016,01,28,18,52,6.80
2016,01,28,18,53,6.70
2016,01,28,18,54,6.60
2016,01,28,18,55,6.50
2016,01,28,18,56,6.40
2016,01,28,18,57,6.30
2016,01,28,18,58,6.20
2016,01,28,18,59,6.20
2016,01,28,19,00,6.20
2016,01,28,19,01,6.10
2016,01,28,19,02,6.10
2016,01,28,19,03,6.00
2016,01,28,19,04,6.00
2016,01,28,19,05,6.00
2016,01,28,19,06,5.90
2016,01,28,19,07,5.90
2016,01,28,19,08,5.90
2016,01,28,19,09,5.90
2016,01,28,19,10,5.90
2016,01,28,19,11,5.90
2016,01,28,19,12,5.90
2016,01,28,19,13,5.90
2016,01,28,19,14,5.90
2016,01,28,19,15,5.90
